Time,TemperatureF,DewpointF,PressureIn,WindDirection,WindDirectionDegrees,WindSpeedMPH,WindSpeedGustMPH,Humidity,HourlyPrecipIn,Conditions,Clouds,dailyrainin,SoftwareType,DateUTC
2013-11-10 00:02:00,39.2,35.0,30.30,West,273,0.0,0.0,85,0.00,,,0.00,weatherlink.com 1.10,2013-11-10 05:02:00,
2013-11-10 00:17:00,38.9,35.0,30.30,West,278,0.0,0.0,86,0.00,,,0.00,weatherlink.com 1.10,2013-11-10 05:17:00,
2013-11-10 00:32:00,38.8,35.0,30.29,West,278,0.0,0.0,86,0.00,,,0.00,weatherlink.com 1.10,2013-11-10 05:32:00,
2013-11-10 00:47:00,38.4,35.0,30.29,ESE,120,0.0,1.0,87,0.00,,,0.00,weatherlink.com 1.10,2013-11-10 05:47:00,
2013-11-10 01:02:00,38.1,35.0,30.29,ESE,120,0.0,0.0,87,0.00,,,0.00,weatherlink.com 1.10,2013-11-10 06:02:00,
2013-11-10 01:17:00,37.9,35.0,30.29,ESE,120,0.0,0.0,88,0.00,,,0.00,weatherlink.com 1.10,2013-11-10 06:17:00,
2013-11-10 01:32:00,37.9,35.0,30.29,West,274,0.0,0.0,88,0.00,,,0.00,weatherlink.com 1.10,2013-11-10 06:32:00,
2013-11-10 01:47:00,37.7,35.0,30.29,WNW,300,0.0,1.0,89,0.00,,,0.00,weatherlink.com 1.10,2013-11-10 06:47:00,
2013-11-10 02:02:00,37.3,34.0,30.28,ENE,71,2.0,2.0,89,0.00,,,0.00,weatherlink.com 1.10,2013-11-10 07:02:00,
2013-11-10 02:17:00,37.5,35.0,30.29,ESE,120,0.0,1.0,89,0.00,,,0.00,weatherlink.com 1.10,2013-11-10 07:17:00,
2013-11-10 02:32:00,37.1,35.0,30.29,ESE,113,0.0,1.0,90,0.00,,,0.00,weatherlink.com 1.10,2013-11-10 07:32:00,
2013-11-10 02:47:00,37.1,35.0,30.29,WNW,293,0.0,3.0,90,0.00,,,0.00,weatherlink.com 1.10,2013-11-10 07:47:00,
2013-11-10 03:02:00,36.8,34.0,30.29,WNW,293,0.0,0.0,89,0.00,,,0.00,weatherlink.com 1.10,2013-11-10 08:02:00,
2013-11-10 03:17:00,36.5,34.0,30.28,South,173,0.0,0.0,91,0.00,,,0.00,weatherlink.com 1.10,2013-11-10 08:17:00,
2013-11-10 03:32:00,36.1,34.0,30.29,South,190,0.0,1.0,91,0.00,,,0.00,weatherlink.com 1.10,2013-11-10 08:32:00,
2013-11-10 03:47:00,35.9,34.0,30.29,SSW,192,0.0,0.0,91,0.00,,,0.00,weatherlink.com 1.10,2013-11-10 08:47:00,
2013-11-10 04:02:00,35.2,33.0,30.29,South,190,0.0,0.0,91,0.00,,,0.00,weatherlink.com 1.10,2013-11-10 09:02:00,
2013-11-10 04:17:00,34.9,33.0,30.29,South,191,0.0,0.0,93,0.00,,,0.00,weatherlink.com 1.10,2013-11-10 09:17:00,
2013-11-10 04:32:00,35.0,33.0,30.29,SSW,207,0.0,1.0,92,0.00,,,0.00,weatherlink.com 1.10,2013-11-10 09:32:00,
2013-11-10 04:47:00,34.7,33.0,30.30,SSW,207,0.0,0.0,92,0.00,,,0.00,weatherlink.com 1.10,2013-11-10 09:47:00,
2013-11-10 05:02:00,34.2,32.0,30.30,SSW,207,0.0,0.0,93,0.00,,,0.00,weatherlink.com 1.10,2013-11-10 10:02:00,
2013-11-10 05:17:00,33.9,32.0,30.31,SSW,207,0.0,0.0,93,0.00,,,0.00,weatherlink.com 1.10,2013-11-10 10:17:00,
2013-11-10 05:32:00,33.7,32.0,30.31,SSW,207,0.0,0.0,94,0.00,,,0.00,weatherlink.com 1.10,2013-11-10 10:32:00,
2013-11-10 05:47:00,33.4,32.0,30.31,SSW,207,0.0,0.0,94,0.00,,,0.00,weatherlink.com 1.10,2013-11-10 10:47:00,
2013-11-10 06:17:00,33.2,32.0,30.32,SSW,207,0.0,0.0,95,0.00,,,0.00,weatherlink.com 1.10,2013-11-10 11:17:00,
2013-11-10 06:32:00,33.3,32.0,30.33,SSW,207,0.0,0.0,94,0.00,,,0.00,weatherlink.com 1.10,2013-11-10 11:32:00,
2013-11-10 06:47:00,33.3,32.0,30.33,SSW,207,0.0,0.0,94,0.00,,,0.00,weatherlink.com 1.10,2013-11-10 11:47:00,
2013-11-10 07:02:00,33.2,32.0,30.33,SSW,207,0.0,0.0,95,0.00,,,0.00,weatherlink.com 1.10,2013-11-10 12:02:00,
2013-11-10 07:33:00,32.8,32.0,30.33,SSW,206,0.0,0.0,95,0.00,,,0.00,weatherlink.com 1.10,2013-11-10 12:33:00,
2013-11-10 07:48:00,33.5,33.0,30.33,SSW,207,0.0,0.0,96,0.00,,,0.00,weatherlink.com 1.10,2013-11-10 12:48:00,
2013-11-10 08:03:00,36.1,35.0,30.34,SSW,207,0.0,0.0,94,0.00,,,0.00,weatherlink.com 1.10,2013-11-10 13:03:00,
2013-11-10 08:18:00,38.8,35.0,30.34,WNW,291,0.0,1.0,86,0.00,,,0.00,weatherlink.com 1.10,2013-11-10 13:18:00,
2013-11-10 08:33:00,38.7,36.0,30.35,WNW,293,0.0,0.0,88,0.00,,,0.00,weatherlink.com 1.10,2013-11-10 13:33:00,
2013-11-10 08:48:00,41.5,36.0,30.35,SE,132,1.0,2.0,80,0.00,,,0.00,weatherlink.com 1.10,2013-11-10 13:48:00,
2013-11-10 09:03:00,44.1,36.0,30.36,East,96,0.0,1.0,74,0.00,,,0.00,weatherlink.com 1.10,2013-11-10 14:03:00,
2013-11-10 09:18:00,46.2,37.0,30.36,SE,128,0.0,2.0,71,0.00,,,0.00,weatherlink.com 1.10,2013-11-10 14:18:00,
2013-11-10 09:33:00,47.3,38.0,30.36,ESE,113,2.0,2.0,69,0.00,,,0.00,weatherlink.com 1.10,2013-11-10 14:33:00,
2013-11-10 09:48:00,49.9,38.0,30.35,NE,42,0.0,2.0,63,0.00,,,0.00,weatherlink.com 1.10,2013-11-10 14:48:00,
2013-11-10 10:03:00,52.2,40.0,30.35,ESE,106,0.0,2.0,64,0.00,,,0.00,weatherlink.com 1.10,2013-11-10 15:03:00,
2013-11-10 10:18:00,54.6,37.0,30.34,SE,134,0.0,2.0,51,0.00,,,0.00,weatherlink.com 1.10,2013-11-10 15:18:00,
2013-11-10 10:33:00,55.8,38.0,30.34,WNW,301,2.0,4.0,51,0.00,,,0.00,weatherlink.com 1.10,2013-11-10 15:33:00,
2013-11-10 10:48:00,57.9,36.0,30.34,ENE,67,2.0,3.0,45,0.00,,,0.00,weatherlink.com 1.10,2013-11-10 15:48:00,
2013-11-10 11:03:00,59.2,37.0,30.34,ESE,107,0.0,3.0,44,0.00,,,0.00,weatherlink.com 1.10,2013-11-10 16:03:00,
2013-11-10 11:18:00,60.5,39.0,30.33,NNE,25,1.0,2.0,45,0.00,,,0.00,weatherlink.com 1.10,2013-11-10 16:18:00,
2013-11-10 11:33:00,61.1,38.0,30.33,West,262,1.0,3.0,42,0.00,,,0.00,weatherlink.com 1.10,2013-11-10 16:33:00,
2013-11-10 11:48:00,62.0,38.0,30.32,WSW,246,0.0,3.0,41,0.00,,,0.00,weatherlink.com 1.10,2013-11-10 16:48:00,
2013-11-10 12:03:00,63.4,38.0,30.31,SE,125,1.0,3.0,39,0.00,,,0.00,weatherlink.com 1.10,2013-11-10 17:03:00,
2013-11-10 12:19:00,63.7,37.0,30.30,ESE,114,1.0,3.0,37,0.00,,,0.00,weatherlink.com 1.10,2013-11-10 17:19:00,
2013-11-10 12:34:00,65.2,37.0,30.29,SW,232,0.0,2.0,35,0.00,,,0.00,weatherlink.com 1.10,2013-11-10 17:34:00,
2013-11-10 12:49:00,65.1,34.0,30.28,SSE,160,1.0,4.0,32,0.00,,,0.00,weatherlink.com 1.10,2013-11-10 17:49:00,
2013-11-10 13:04:00,65.8,34.0,30.27,West,272,1.0,4.0,31,0.00,,,0.00,weatherlink.com 1.10,2013-11-10 18:04:00,
2013-11-10 13:19:00,66.4,34.0,30.26,ENE,75,0.0,5.0,30,0.00,,,0.00,weatherlink.com 1.10,2013-11-10 18:19:00,
2013-11-10 13:34:00,66.8,35.0,30.25,ENE,69,1.0,3.0,31,0.00,,,0.00,weatherlink.com 1.10,2013-11-10 18:34:00,
2013-11-10 13:49:00,67.8,34.0,30.25,East,82,1.0,4.0,29,0.00,,,0.00,weatherlink.com 1.10,2013-11-10 18:49:00,
2013-11-10 14:04:00,68.0,34.0,30.25,South,183,1.0,1.0,28,0.00,,,0.00,weatherlink.com 1.10,2013-11-10 19:04:00,
2013-11-10 14:19:00,68.2,33.0,30.25,ESE,113,2.0,3.0,27,0.00,,,0.00,weatherlink.com 1.10,2013-11-10 19:19:00,
2013-11-10 14:34:00,67.6,33.0,30.25,ESE,122,0.0,6.0,28,0.00,,,0.00,weatherlink.com 1.10,2013-11-10 19:34:00,
2013-11-10 14:49:00,67.1,34.0,30.25,NE,47,2.0,4.0,29,0.00,,,0.00,weatherlink.com 1.10,2013-11-10 19:49:00,
2013-11-10 15:04:00,67.0,32.0,30.24,SW,233,0.0,5.0,27,0.00,,,0.00,weatherlink.com 1.10,2013-11-10 20:04:00,
2013-11-10 15:19:00,67.3,32.0,30.24,SE,125,2.0,4.0,27,0.00,,,0.00,weatherlink.com 1.10,2013-11-10 20:19:00,
2013-11-10 15:34:00,66.9,32.0,30.24,NE,41,1.0,3.0,27,0.00,,,0.00,weatherlink.com 1.10,2013-11-10 20:34:00,
2013-11-10 15:49:00,66.7,32.0,30.24,SW,215,0.0,3.0,28,0.00,,,0.00,weatherlink.com 1.10,2013-11-10 20:49:00,
2013-11-10 16:05:00,67.1,32.0,30.24,SE,127,0.0,3.0,27,0.00,,,0.00,weatherlink.com 1.10,2013-11-10 21:05:00,
2013-11-10 16:19:00,66.8,31.0,30.25,East,94,0.0,5.0,26,0.00,,,0.00,weatherlink.com 1.10,2013-11-10 21:19:00,
2013-11-10 16:34:00,66.5,32.0,30.25,ESE,108,0.0,3.0,28,0.00,,,0.00,weatherlink.com 1.10,2013-11-10 21:34:00,
2013-11-10 16:49:00,65.5,32.0,30.26,SSE,160,0.0,2.0,29,0.00,,,0.00,weatherlink.com 1.10,2013-11-10 21:49:00,
2013-11-10 17:04:00,64.4,30.0,30.26,North,352,1.0,2.0,27,0.00,,,0.00,weatherlink.com 1.10,2013-11-10 22:04:00,
2013-11-10 17:19:00,62.0,31.0,30.26,WSW,238,2.0,2.0,31,0.00,,,0.00,weatherlink.com 1.10,2013-11-10 22:19:00,
2013-11-10 17:34:00,59.5,30.0,30.27,SE,142,0.0,1.0,33,0.00,,,0.00,weatherlink.com 1.10,2013-11-10 22:34:00,
2013-11-10 17:49:00,57.0,31.0,30.28,SE,128,0.0,0.0,37,0.00,,,0.00,weatherlink.com 1.10,2013-11-10 22:49:00,
2013-11-10 18:04:00,54.8,31.0,30.29,SE,128,0.0,0.0,40,0.00,,,0.00,weatherlink.com 1.10,2013-11-10 23:04:00,
2013-11-10 18:19:00,53.2,32.0,30.29,SE,128,0.0,0.0,44,0.00,,,0.00,weatherlink.com 1.10,2013-11-10 23:19:00,
2013-11-10 18:34:00,51.9,32.0,30.30,SE,127,0.0,0.0,46,0.00,,,0.00,weatherlink.com 1.10,2013-11-10 23:34:00,
2013-11-10 18:49:00,50.8,33.0,30.30,SE,128,0.0,0.0,50,0.00,,,0.00,weatherlink.com 1.10,2013-11-10 23:49:00,
2013-11-10 19:04:00,49.5,32.0,30.30,SE,128,0.0,1.0,52,0.00,,,0.00,weatherlink.com 1.10,2013-11-11 00:04:00,
2013-11-10 19:19:00,48.1,33.0,30.31,East,86,0.0,1.0,57,0.00,,,0.00,weatherlink.com 1.10,2013-11-11 00:19:00,
2013-11-10 19:34:00,46.8,34.0,30.31,ENE,78,0.0,1.0,62,0.00,,,0.00,weatherlink.com 1.10,2013-11-11 00:34:00,
2013-11-10 19:49:00,45.8,33.0,30.30,East,79,0.0,0.0,62,0.00,,,0.00,weatherlink.com 1.10,2013-11-11 00:49:00,
2013-11-10 20:04:00,45.2,34.0,30.31,East,79,0.0,0.0,66,0.00,,,0.00,weatherlink.com 1.10,2013-11-11 01:04:00,
2013-11-10 20:19:00,43.9,34.0,30.31,East,79,0.0,0.0,69,0.00,,,0.00,weatherlink.com 1.10,2013-11-11 01:19:00,
2013-11-10 20:34:00,43.6,34.0,30.31,SW,224,0.0,1.0,70,0.00,,,0.00,weatherlink.com 1.10,2013-11-11 01:34:00,
2013-11-10 20:49:00,43.1,35.0,30.31,SSW,211,0.0,0.0,72,0.00,,,0.00,weatherlink.com 1.10,2013-11-11 01:49:00,
2013-11-10 21:04:00,41.7,34.0,30.31,SSW,209,0.0,0.0,75,0.00,,,0.00,weatherlink.com 1.10,2013-11-11 02:04:00,
2013-11-10 21:19:00,41.1,34.0,30.32,WSW,238,0.0,1.0,77,0.00,,,0.00,weatherlink.com 1.10,2013-11-11 02:19:00,
2013-11-10 21:34:00,40.5,34.0,30.32,WSW,238,0.0,1.0,77,0.00,,,0.00,weatherlink.com 1.10,2013-11-11 02:34:00,
2013-11-10 21:49:00,39.8,33.0,30.32,NNW,347,0.0,1.0,78,0.00,,,0.00,weatherlink.com 1.10,2013-11-11 02:49:00,
2013-11-10 22:04:00,39.9,33.0,30.32,WSW,251,0.0,1.0,77,0.00,,,0.00,weatherlink.com 1.10,2013-11-11 03:04:00,
2013-11-10 22:19:00,38.6,33.0,30.32,North,11,0.0,1.0,80,0.00,,,0.00,weatherlink.com 1.10,2013-11-11 03:19:00,
2013-11-10 22:34:00,38.1,33.0,30.33,West,278,0.0,2.0,81,0.00,,,0.00,weatherlink.com 1.10,2013-11-11 03:34:00,
2013-11-10 22:49:00,37.6,33.0,30.33,ENE,63,0.0,1.0,83,0.00,,,0.00,weatherlink.com 1.10,2013-11-11 03:49:00,
2013-11-10 23:04:00,37.3,33.0,30.33,NW,321,0.0,1.0,83,0.00,,,0.00,weatherlink.com 1.10,2013-11-11 04:04:00,
2013-11-10 23:19:00,37.1,32.0,30.33,NW,321,0.0,0.0,83,0.00,,,0.00,weatherlink.com 1.10,2013-11-11 04:19:00,
2013-11-10 23:34:00,36.8,32.0,30.33,West,277,0.0,1.0,84,0.00,,,0.00,weatherlink.com 1.10,2013-11-11 04:34:00,
2013-11-10 23:49:00,36.0,32.0,30.32,West,274,0.0,0.0,85,0.00,,,0.00,weatherlink.com 1.10,2013-11-11 04:49:00,